Vorticity
nan nan nan nan nan nan nan nan nan nan nan nan nan nan nan nan nan nan nan nan nan nan nan nan nan nan nan nan nan nan nan nan nan nan nan nan nan nan nan nan nan nan nan
nan 9 7 5 5 5 4 4 4 4 5 6 6 7 7 6 5 5 5 5 4 4 4 5 6 6 5 6 6 5 5 5 5 6 6 2 2 5 6 5 6 7 nan
nan 7 8 7 5 5 5 4 4 5 5 5 5 6 6 5 5 5 5 5 4 5 5 5 5 5 5 5 5 6 7 5 5 6 1 1 6 7 5 4 5 5 nan
nan 7 10 9 6 6 5 5 5 5 4 4 5 6 5 6 6 5 5 6 8 7 4 5 7 5 6 6 5 6 5 5 6 3 2 7 7 6 4 5 4 3 nan
nan 8 12 9 6 6 5 5 5 5 5 4 5 6 5 5 5 6 5 6 6 6 9 8 5 5 5 6 6 5 6 5 3 0 6 7 7 8 5 5 6 5 nan
nan 10 12 7 5 5 6 5 6 5 5 5 5 5 5 5 4 5 5 5 6 5 7 9 7 7 6 6 5 5 6 5 2 2 7 6 8 9 5 5 5 6 nan
nan 8 10 8 5 6 5 5 6 5 5 5 5 5 5 5 4 4 4 4 5 6 7 8 8 9 8 6 5 6 6 3 1 4 5 5 8 8 6 4 5 5 nan
nan 8 10 8 6 6 5 5 5 5 5 5 5 4 4 5 4 4 4 5 5 5 7 8 9 10 8 6 6 6 6 5 4 5 6 7 8 7 5 3 6 6 nan
nan 6 8 9 10 7 5 5 5 5 5 5 5 5 5 5 5 5 6 6 5 4 5 8 8 10 9 7 6 5 5 4 4 7 7 8 9 7 5 5 5 4 nan
nan 6 6 7 8 7 10 9 5 5 5 5 5 5 5 6 6 5 6 6 6 4 4 5 8 10 8 6 6 5 5 5 4 7 9 9 10 6 4 7 5 5 nan
nan 8 4 5 7 7 9 9 10 7 6 6 6 5 4 5 8 8 6 6 5 6 5 5 6 7 10 9 7 6 4 4 5 7 12 11 8 5 5 7 6 6 nan
nan 5 4 5 6 6 6 8 8 6 7 8 8 8 7 6 7 9 9 8 7 6 7 6 6 6 6 6 10 7 5 7 6 7 10 10 7 6 5 6 7 6 nan
nan 6 7 5 7 6 6 6 6 8 7 8 8 7 6 6 6 7 9 9 11 7 7 8 7 7 7 6 7 7 6 7 6 8 9 9 8 8 7 6 6 5 nan
nan 6 5 7 6 5 7 8 7 6 7 6 9 6 6 7 7 7 6 8 8 10 8 7 7 8 6 7 7 6 6 6 6 8 10 7 9 12 7 7 7 5 nan
nan 7 7 6 6 7 5 6 7 7 7 8 8 6 7 8 7 7 7 8 8 8 8 8 8 8 7 8 6 7 7 7 6 6 8 11 10 13 8 6 7 7 nan
nan 8 8 6 8 8 5 7 8 9 7 7 7 8 7 7 8 7 7 7 8 8 7 8 8 7 8 8 7 8 7 7 8 7 7 10 13 12 9 8 6 7 nan
nan 9 9 8 1 6 11 7 7 6 8 8 7 8 8 7 8 7 6 8 9 8 8 8 8 8 8 8 8 8 9 7 7 7 8 8 11 13 14 7 7 9 nan
nan 9 6 7 7 6 7 7 9 10 8 8 8 9 9 8 7 7 8 8 8 8 9 9 8 8 8 8 8 7 7 9 8 7 7 8 7 11 15 13 8 8 nan
nan 10 8 10 12 7 7 9 8 8 7 10 10 9 10 10 8 8 8 8 8 7 8 8 7 8 8 8 8 8 9 8 8 9 8 8 8 7 9 13 13 13 nan
nan 9 7 9 11 9 8 8 7 8 8 10 9 10 10 10 11 10 8 9 9 8 8 9 8 7 7 8 10 9 9 8 8 9 9 9 9 8 8 9 11 14 nan
nan 9 9 7 7 8 9 7 8 8 8 8 10 11 8 8 10 10 9 9 9 9 9 8 9 8 8 9 8 11 11 11 9 9 10 10 9 10 8 7 7 8 nan
nan 7 8 9 9 6 8 9 9 8 9 8 8 9 9 11 10 9 8 9 8 8 9 10 7 7 10 10 5 8 10 11 13 11 11 11 9 10 11 9 8 7 nan
nan 8 8 8 7 7 7 8 8 8 8 8 10 8 8 9 9 10 10 9 10 10 9 10 10 7 8 9 7 6 8 7 9 11 11 10 12 11 11 11 10 8 nan
nan 8 9 9 9 7 8 7 8 10 9 8 9 8 7 7 8 8 9 10 10 10 9 9 10 9 9 8 10 8 6 10 8 8 8 9 11 11 13 13 12 12 nan
nan 9 13 10 8 7 8 8 8 10 10 10 8 7 7 7 7 8 9 10 11 10 10 11 10 9 8 8 8 10 9 7 8 9 8 8 4 7 11 12 12 12 nan
nan nan nan nan nan nan nan nan nan nan nan nan nan nan nan nan nan nan nan nan nan nan nan nan nan nan nan nan nan nan nan nan nan nan nan nan nan nan nan nan nan nan nan
CAPE
1361 1993 2906 2827 2304 2160 2083 2141 2405 2643 2810 2929 2955 2946 2774 2627 2498 2358 2312 2309 2025 1765 1675 1626 1462 1657 1670 1571 1381 1283 1178 1092 861 564 662 1035 979 391 400 782 413 227 702
1477 2247 3048 3096 2636 2246 2254 2261 2205 2561 2601 2867 3047 2943 2851 2691 2603 2365 2287 2069 1985 1831 1850 1731 1578 1796 1527 1558 1450 1124 1050 1069 583 515 724 759 397 751 830 783 775 588 631
1972 2396 2776 3225 3045 2379 2278 2309 2171 2352 2151 2360 2827 2888 2889 3053 2708 2195 2244 2073 2023 1889 1776 1959 1775 1752 1477 1176 1089 971 1327 1108 1576 939 997 803 857 594 353 818 759 818 699
2097 2512 2606 3238 3267 2706 2419 2408 2371 2164 2142 2245 2379 2517 2607 2571 2379 2249 2211 2033 1942 1758 1943 1858 1780 1886 1459 1604 1351 1402 1333 1411 1317 1203 801 567 308 397 440 712 496 435 400
2308 2401 2526 3506 3327 2669 2490 2688 2646 2522 2271 2269 2235 2315 2446 2361 2348 2487 2373 2324 2215 2168 2035 2042 1510 1806 1735 1834 1807 1330 1228 1319 1192 789 419 585 794 297 135 849 343 269 217
2343 2416 3219 3490 2793 2667 2587 2566 2519 2503 2512 2360 2212 2120 2266 2400 2509 2492 2252 2164 2134 2248 2258 1988 1822 1559 1772 1741 1689 1517 1453 1306 1035 298 443 921 507 819 169 993 973 969 403
2255 2685 2921 3445 3327 2973 2591 2576 2573 2522 2429 2371 2340 2272 2223 2285 2269 2309 2146 2174 2101 2192 2129 2125 1824 1341 1600 1929 1353 1344 1202 1240 419 416 411 942 699 1138 358 298 408 587 317
2396 2681 2866 3218 3232 2733 2627 2547 2533 2492 2417 2377 2391 2311 2391 2423 2332 2262 2095 2020 2094 1787 2051 1798 1767 1392 1622 1827 1048 1232 1183 1038 855 561 500 538 455 1217 543 471 904 950 324
2429 2563 2661 2656 2568 2686 2640 2392 2442 2434 2415 2534 2366 2215 2588 2619 2356 2433 2307 1943 1879 1823 1715 1766 1710 1654 1477 1978 1710 1461 1192 923 902 680 431 390 656 1019 800 1015 567 469 504
2281 2460 2392 2470 2269 2334 2343 2832 2592 2695 2560 2337 2132 2164 2332 2345 2281 2258 2593 2414 1981 1649 1060 1442 1611 1615 1928 1859 1904 1239 937 1104 604 541 490 400 836 867 795 1084 958 532 517
2055 2101 2120 2047 1961 2087 2244 2504 3045 2606 2376 2037 2065 2493 2312 1927 1980 2239 2270 2065 1965 1866 1632 1473 1505 1668 1619 2120 1835 1357 966 966 584 483 567 498 1169 1187 1187 1528 1150 604 513
1567 1729 1693 1707 1856 1817 2195 1998 2094 1811 1673 1517 1988 1920 1779 1590 1591 2224 2481 2036 1921 1838 1768 1712 1627 1654 1733 1203 1528 1850 1407 852 710 444 601 754 1274 883 1316 1332 1455 1075 783
1470 1623 1589 1521 1512 1593 1975 1482 1636 1342 1278 1497 1839 1635 1477 1383 1229 1373 1108 1369 1425 1971 1557 1873 1936 1774 1325 1129 1066 1041 1172 876 557 369 554 963 1383 1151 1097 1712 1407 966 995
1209 1346 1315 1317 1292 1246 1417 1422 1545 1270 1262 1415 1226 1231 1020 926 997 916 790 1087 808 1232 1127 1140 1394 1459 1307 988 859 741 767 707 643 362 443 978 1243 1442 1521 1495 1485 1018 849
1039 1042 1033 1162 1131 1142 1207 1258 1212 1089 1131 1130 1131 1043 884 796 779 195 264 686 796 688 869 933 1058 1068 793 631 585 430 389 655 614 466 454 738 1306 1430 1849 1305 875 1149 1245
966 927 894 1055 1029 1143 995 858 769 815 854 742 638 751 784 266 158 145 249 263 287 421 611 635 460 537 514 217 125 227 191 202 284 451 455 755 1409 1383 1537 1601 1220 1564 1422
1024 905 1056 1041 1153 695 1021 968 748 182 132 175 251 220 171 281 228 237 264 188 118 30 200 219 141 87 117 41 29 0 19 25 26 110 378 544 644 1178 1578 1431 1452 1840 1804
1213 1117 1274 1362 958 1196 977 642 361 171 111 17 15 83 92 35 0 0 165 266 72 44 10 46 36 32 20 0 0 0 0 0 0 31 205 582 663 552 1189 1667 1376 1377 1420
1270 1269 1451 1246 1293 1032 883 586 368 331 232 252 120 58 46 59 96 56 142 244 311 226 139 72 37 25 1 0 0 0 0 0 0 4 158 327 542 852 697 918 1373 1276 1495
1119 1319 1557 988 994 614 324 194 58 118 210 223 138 59 115 128 330 294 307 309 180 180 138 32 12 1 1 0 0 2 0 0 0 31 85 279 585 690 904 861 1090 955 1434
1295 1315 1153 875 362 267 47 17 2 69 90 253 135 48 10 0 0 0 0 0 104 106 101 16 1 2 2 1 0 0 0 16 79 154 190 257 458 815 834 1105 1105 1073 1043
1206 1233 802 380 169 62 0 0 4 75 128 223 85 260 156 117 16 0 0 45 43 41 22 3 2 3 2 2 0 0 39 20 1 61 148 232 268 437 777 823 882 835 877
1068 932 564 380 104 4 6 129 121 91 130 124 60 74 62 88 75 34 18 9 0 0 0 0 1 3 1 5 0 22 0 22 5 2 82 165 332 380 515 631 742 830 787
781 668 424 196 21 9 172 183 189 236 231 110 56 0 3 5 7 7 6 18 12 0 0 0 0 2 2 2 17 3 2 0 0 0 38 7 199 199 256 421 597 629 662
0 335 293 155 35 47 144 346 360 311 157 49 0 14 0 0 0 0 0 0 0 0 0 0 1 8 3 2 3 5 31 94 121 114 43 24 56 59 35 35 419 544 613
3 466 551 213 68 114 120 356 417 261 104 87 37 1 0 0 0 0 0 0 1 1 11 0 0 2 5 2 1 0 1 90 128 33 9 15 3 61 64 103 154 151 68